Ellensburg, WA

5:39 AM PDT on April 25, 2017 (GMT -0700)
Bowers

Weather History for KELN - September, 2012

Change the Weather History Date:

Wednesday, September 12, 2012

  Actual Average (KYKM) Record (KYKM)
Temperature  
Mean Temperature 56 °F -  
Max Temperature 75 °F 77 °F 98 °F (2011)
Min Temperature 36 °F 44 °F 34 °F (1964)
Degree Days  
Heating Degree Days 10    
Growing Degree Days 6 (Base 50)    
Moisture  
Dew Point 32 °F    
Average Humidity 48    
Maximum Humidity 79    
Minimum Humidity 17    
Precipitation  
Precipitation 0.00 in - - ()
Sea Level Pressure  
Sea Level Pressure 30.34 in    
Wind  
Wind Speed 2 mph (East)    
Max Wind Speed 10 mph    
Max Gust Speed -    
Visibility 8 miles    
Events      
Averages and records for this station are not official NWS values.
T = Trace of Precipitation, MM = Missing Value Source: NWS Daily Summary

Daily Weather History Graph

Daily Weather History Graph

Search for Another Location

Airport or City:

Trip Planner

Search our weather history database for the weather conditions in past years. The results will help you decide how hot, cold, wet, or windy it might be!

Date:

Astronomy

Sep. 12, 2012 Rise Set
Actual Time 6:36 AM PDT 7:18 PM PDT
Civil Twilight 6:05 AM PDT 7:49 PM PDT
Nautical Twilight 5:29 AM PDT 8:25 PM PDT
Astronomical Twilight 4:50 AM PDT 9:04 PM PDT
Moon 2:47 AM PDT (9/12) 5:18 PM PDT (9/12)
Length of Visible Light 13h 43m
Length of Day
12h 42m
Waning Crescent, 13% of the Moon is Illuminated
Sep 12
Waning Crescent
Sep 15
New
Sep 22
First Quarter
Sep 29
Full
Oct 8
Last Quarter

Hourly Weather History & Observations

Time (PDT) Temp. Windchill Dew Point Humidity Pressure Visibility Wind Dir Wind Speed Gust Speed Precip Events Conditions
12:53 AM 48.9 °F - 37.9 °F 66% 30.25 in 10.0 mi Calm Calm - N/A   Clear
1:53 AM 44.1 °F 41.5 °F 33.1 °F 65% 30.28 in 4.0 mi NE 4.6 mph - N/A   Haze
2:07 AM 44.6 °F 43.1 °F 33.8 °F 66% 30.28 in 4.0 mi North 3.5 mph - N/A   Haze
2:53 AM 43.0 °F - 32.0 °F 65% 30.30 in 2.5 mi Calm Calm - N/A   Haze
3:35 AM 39.2 °F - 32.0 °F 75% 30.30 in 3.0 mi Calm Calm - N/A   Haze
3:53 AM 41.0 °F - 32.0 °F 70% 30.30 in 4.0 mi Calm Calm - N/A   Haze
4:53 AM 37.9 °F 33.5 °F 30.9 °F 76% 30.32 in 4.0 mi NE 5.8 mph - N/A   Haze
5:53 AM 37.0 °F - 30.0 °F 76% 30.34 in 5.0 mi Calm Calm - N/A   Haze
6:53 AM 36.0 °F - 30.0 °F 79% 30.38 in 4.0 mi Calm Calm - N/A   Haze
7:53 AM 42.1 °F - 34.0 °F 73% 30.40 in 5.0 mi Calm Calm - N/A   Haze
8:53 AM 46.9 °F - 36.0 °F 66% 30.41 in 9.0 mi Calm Calm - N/A   Clear
9:53 AM 53.1 °F - 37.9 °F 57% 30.42 in 10.0 mi Calm Calm - N/A   Clear
10:39 AM 59.0 °F - 37.4 °F 45% 30.41 in 7.0 mi Calm Calm - N/A   Overcast
10:53 AM 60.1 °F - 37.9 °F 44% 30.41 in 7.0 mi SSW 3.5 mph - N/A   Overcast
11:53 AM 64.9 °F - 34.0 °F 32% 30.40 in 5.0 mi Calm Calm - N/A   Haze
12:53 PM 70.0 °F - 34.0 °F 27% 30.39 in 7.0 mi SE 5.8 mph - N/A   Overcast
1:53 PM 72.0 °F - 30.9 °F 22% 30.38 in 10.0 mi Variable 3.5 mph - N/A   Overcast
2:53 PM 73.9 °F - 28.0 °F 18% 30.35 in 10.0 mi ESE 6.9 mph - N/A   Overcast
3:53 PM 73.9 °F - 28.0 °F 18% 30.34 in 10.0 mi Calm Calm - N/A   Overcast
4:53 PM 75.0 °F - 27.0 °F 17% 30.32 in 10.0 mi ESE 5.8 mph - N/A   Overcast
5:12 PM 75.2 °F - 28.4 °F 18% 30.32 in 10.0 mi ESE 6.9 mph - N/A   Scattered Clouds
5:53 PM 73.0 °F - 28.9 °F 20% 30.31 in 10.0 mi ESE 6.9 mph - N/A   Clear
6:53 PM 66.0 °F - 34.0 °F 30% 30.32 in 10.0 mi East 6.9 mph - N/A   Clear
7:53 PM 60.1 °F - 30.9 °F 33% 30.33 in 10.0 mi East 8.1 mph - N/A   Clear
8:53 PM 52.0 °F - 33.1 °F 49% 30.35 in 10.0 mi Calm Calm - N/A   Clear
9:53 PM 51.1 °F - 30.9 °F 46% 30.35 in 10.0 mi North 10.4 mph - N/A   Clear
10:53 PM 48.9 °F - 30.0 °F 48% 30.34 in 10.0 mi North 3.5 mph - N/A   Clear
11:53 PM 46.9 °F - 30.0 °F 52% 30.35 in 10.0 mi Calm Calm - N/A   Clear